Weather History for KBMG - September, 2014

Change the Weather History Date:

Sunday, September 21, 2014

  Actual Average Record
Temperature  
Mean Temperature 63 °F 63 °F  
Max Temperature 75 °F 76 °F 94 °F (2010)
Min Temperature 51 °F 51 °F 41 °F (2003)
Degree Days  
Heating Degree Days 2 4  
Month to date heating degree days 70 31  
Since 1 July heating degree days 76 38  
Cooling Degree Days 0 2  
Month to date cooling degree days 57 82  
Year to date cooling degree days 887 899  
Growing Degree Days 14 (Base 50)    
Moisture  
Dew Point 58 °F    
Average Humidity 64    
Maximum Humidity 90    
Minimum Humidity 38    
Precipitation  
Precipitation 0.08 in 0.11 in 0.63 in (2012)
Month to date precipitation 4.11 2.27  
Year to date precipitation 34.74 35.46  
Sea Level Pressure  
Sea Level Pressure 29.91 in    
Wind  
Wind Speed 8 mph (WNW)    
Max Wind Speed 18 mph    
Max Gust Speed 28 mph    
Visibility 9 miles    
Events Rain , Thunderstorm    
T = Trace of Precipitation, MM = Missing Value Source: NWS Daily Summary

Daily Weather History Graph

Daily Weather History Graph

Search for Another Location

Airport or City:

Trip Planner

Search our weather history database for the weather conditions in past years. The results will help you decide how hot, cold, wet, or windy it might be!

Date:

Astronomy

Sep. 21, 2014 Rise Set
Actual Time 7:33 AM EDT 7:45 PM EDT
Civil Twilight 7:06 AM EDT 8:11 PM EDT
Nautical Twilight 6:35 AM EDT 8:43 PM EDT
Astronomical Twilight 6:03 AM EDT 9:14 PM EDT
Moon 5:07 AM EDT (9/21) 6:20 PM EDT (9/21)
Length of Visible Light 13h 05m
Length of Day
12h 11m
Waning Crescent, 6% of the Moon is Illuminated
Sep 21
Waning Crescent
Sep 24
New
Oct 1
First Quarter
Oct 8
Full
Oct 15
Last Quarter

Hourly Weather History & Observations

Time (EDT) Temp. Dew Point Humidity Pressure Visibility Wind Dir Wind Speed Gust Speed Precip Events Conditions
1:53 AM 73.9 °F 66.0 °F 76% 29.86 in 10.0 mi WSW 10.4 mph 21.9 mph N/A   Clear
2:53 AM 73.0 °F 66.0 °F 79% 29.85 in 10.0 mi WSW 13.8 mph - N/A   Clear
3:53 AM 71.1 °F 66.0 °F 84% 29.83 in 10.0 mi WSW 8.1 mph - N/A   Scattered Clouds
4:02 AM 71.1 °F 66.0 °F 84% 29.85 in 10.0 mi SW 10.4 mph - N/A Thunderstorm Scattered Clouds
4:17 AM 72.0 °F 66.0 °F 81% 29.88 in 7.0 mi West 11.5 mph - 0.02 in Rain Light Rain
4:53 AM 70.0 °F 66.9 °F 90% 29.84 in 10.0 mi WSW 8.1 mph - 0.08 in Rain Light Rain
5:29 AM 69.1 °F 66.9 °F 93% 29.85 in 10.0 mi WSW 9.2 mph - 0.00 in   Overcast
5:53 AM 69.1 °F 66.9 °F 93% 29.83 in 10.0 mi WSW 8.1 mph - 0.00 in   Mostly Cloudy
6:31 AM 69.1 °F 66.9 °F 93% 29.85 in 9.0 mi West 9.2 mph - N/A   Mostly Cloudy
6:43 AM 69.1 °F 66.9 °F 93% 29.86 in 8.0 mi WNW 5.8 mph - N/A   Overcast
6:53 AM 69.1 °F 66.9 °F 93% 29.85 in 8.0 mi WNW 6.9 mph - N/A   Overcast
7:36 AM 69.1 °F 66.9 °F 93% 29.89 in 8.0 mi West 9.2 mph - N/A   Overcast
7:53 AM 69.1 °F 66.0 °F 90% 29.87 in 8.0 mi WNW 8.1 mph - N/A   Overcast
8:00 AM 69.1 °F 66.0 °F 90% 29.89 in 8.0 mi WNW 9.2 mph - N/A   Mostly Cloudy
8:53 AM 69.1 °F 64.9 °F 87% 29.88 in 8.0 mi WNW 8.1 mph - N/A   Mostly Cloudy
9:40 AM 69.1 °F 62.1 °F 78% 29.91 in 10.0 mi NW 8.1 mph - N/A   Scattered Clouds
10:53 AM 68.0 °F 51.1 °F 55% 29.92 in 10.0 mi NW 10.4 mph - N/A   Clear
11:53 AM 70.0 °F 50.0 °F 49% 29.92 in 10.0 mi WNW 13.8 mph 21.9 mph N/A   Clear
12:53 PM 72.0 °F 48.9 °F 44% 29.92 in 10.0 mi WNW 12.7 mph 24.2 mph N/A   Clear
1:53 PM 73.0 °F 48.0 °F 41% 29.91 in 10.0 mi NW 10.4 mph 20.7 mph N/A   Clear
2:53 PM 72.0 °F 48.0 °F 43% 29.91 in 10.0 mi WNW 15.0 mph 21.9 mph N/A   Partly Cloudy
4:53 PM 73.0 °F 46.0 °F 38% 29.91 in 10.0 mi NW 9.2 mph 20.7 mph N/A   Partly Cloudy
5:53 PM 71.1 °F 48.0 °F 44% 29.94 in 10.0 mi NW 11.5 mph 19.6 mph N/A   Partly Cloudy
6:53 PM 66.0 °F 48.9 °F 54% 29.98 in 10.0 mi NNW 10.4 mph 18.4 mph N/A   Clear
7:53 PM 62.1 °F 46.9 °F 58% 30.01 in 10.0 mi Variable 3.5 mph - N/A   Clear
8:53 PM 59.0 °F 48.9 °F 69% 30.04 in 10.0 mi NW 3.5 mph - N/A   Clear
9:53 PM 57.0 °F 48.9 °F 74% 30.06 in 10.0 mi Calm Calm - N/A   Clear
10:53 PM 55.0 °F 48.9 °F 80% 30.07 in 10.0 mi Calm Calm - N/A   Clear
11:53 PM 53.1 °F 50.0 °F 89% 30.09 in 10.0 mi Calm Calm - N/A   Partly Cloudy